Regional Weather Roundup
Issued by NWS

Home | Current Version | Previous Version | Text Only | Print | Product List | Glossary Off
Versions: 1 2 3 4 5 6 7 8 9 10 11 12 13 14 15 16 17 18 19 20 21 22 23 24 25 26 27

000
ASUS45 KTFX 280410
RWRMT
MONTANA REGIONAL WEATHER ROUNDUP
NATIONAL WEATHER SERVICE GREAT FALLS MT
1000 PM MDT SAT MAY 27 2017

NOTE: "FAIR" INDICATES FEW OR NO CLOUDS BELOW 12000 FEET WITH NO
SIGNIFICANT WEATHER AND/OR OBSTRUCTIONS TO VISIBILITY.

MTZ001>007-043-280500-
WEST OF THE DIVIDE

CITY           SKY/WX    TMP DP  RH WIND       PRES   REMARKS
KALISPELL      CLEAR     66  42  41 S8        30.10R
MISSOULA       CLEAR     58  45  62 CALM      30.15R
BUTTE          CLEAR     51  35  54 SE5       30.25R
MULLAN PASS    CLEAR     52  35  52 NW6       30.28R
ANACONDA         N/A     54  34  47 W6        30.22R
DEER LODGE       N/A     54  37  54 W3        30.23R
EUREKA           N/A     66  45  45 E8        30.07R
HAMILTON         N/A     57  39  51 SE3       30.17S
RONAN            N/A     60  43  53 E3        30.17R
$$

MTZ008-052>055-280500-
SOUTHWEST MONTANA

CITY           SKY/WX    TMP DP  RH WIND       PRES   REMARKS
BOZEMAN        CLEAR     48  41  76 SE8       30.20R
DILLON         PTCLDY    52  35  52 S7        30.22R
ENNIS          CLEAR     54  32  43 CALM      30.28R
THREE FORKS      N/A     56  41  57 CALM      30.16R
TWIN BRIDGES     N/A     54  33  44 NE2       30.18R
$$

MTZ009-010-012-014-046-048-049-054-280500-
EAST SLOPES AND CENTRAL MONTANA

CITY           SKY/WX    TMP DP  RH WIND       PRES   REMARKS
CUT BANK       CLEAR     59  40  49 W12       30.11R
GREAT FALLS    CLOUDY    63  40  42 S3        30.11R
MALMSTROM AFB  MOCLDY    57  44  62 S7        30.11R
HELENA         PTCLDY    66  36  32 W8        30.14R
CHOTEAU          N/A     59  37  44 W9        30.15R
CONRAD           N/A     60  43  53 W6        30.13S
$$

MTZ011-013-016-021-045-047-050-051-280500-
NORTH CENTRAL MONTANA

CITY           SKY/WX    TMP DP  RH WIND       PRES   REMARKS
HAVRE          CLOUDY    62  48  60 SE15      30.04F
LEWISTOWN      PTCLDY    53  41  63 SW13      30.12S
N BAR RANCH      N/A     52  37  58 NW6       30.16R
CHINOOK          N/A     61  48  63 S3        30.06S
FORT BENTON      N/A     66  41  39 MISG      30.11R
$$

MTZ017>020-022>027-061-062-280500-
NORTHEAST MONTANA

CITY           SKY/WX    TMP DP  RH WIND       PRES   REMARKS
GLASGOW        CLOUDY    61  38  42 NW8       29.97R
JORDAN           N/A     68  33  27 NW9       30.00R
SIDNEY         CLEAR     55  39  54 W13       29.91R
WOLF POINT     CLEAR     63  37  38 NW9       29.94R
MALTA          MOCLDY    59  50  72 W9G20     30.02F
PLENTYWOOD       N/A     57  32  38 NW7       29.92R
POPLAR           N/A     63  39  42 NW8       29.94R
SCOBEY           N/A     57  33  40 NW1       29.94R
$$

MTZ028>42-056>058-280500-
SOUTHCENTRAL AND SOUTHEAST MONTANA

CITY           SKY/WX    TMP DP  RH WIND       PRES   REMARKS
BAKER          CLEAR     52  39  61 W8        29.98S
BILLINGS       CLOUDY    64  38  38 W10       30.11R
LIVINGSTON     CLEAR     50  36  58 SW9       30.18R
MILES CITY     PTCLDY    62  34  35 W8        29.99S
BIG TIMBER     CLEAR     57  37  47 W14       30.20R
FORSYTH          N/A     64  36  34 SW3       30.02R
LAUREL           N/A     63  35  35 CALM      30.11F
ROUNDUP          N/A     57  36  45 SW7       30.01R
$$

REGIONAL REPORTS...DAKOTAS

CITY           SKY/WX    TMP DP  RH WIND       PRES   REMARKS
WILLISTON      CLEAR     54  35  48 NW9       29.89R
MINOT          CLEAR     51  43  74 CALM      29.83R
DICKINSON      CLEAR     51  39  63 W10       29.89R
BEACH          MOCLDY    55  41  58 W8        29.97S
CROSBY           N/A     50  41  71 NW9       29.88R
TIOGA            N/A     55  37  50 N12       29.89R
WATFORD CITY     N/A     57  36  44 NW6       29.89R
BISMARCK       CLEAR     54  45  71 CALM      29.87R
GRAND FORKS    CLOUDY    52  49  89 NW10      29.73R
FARGO          LGT RAIN  58  47  66 NW8       29.75F
BUFFALO SD       N/A     55  45  68 W10       29.93S
RAPID CITY     CLOUDY    58  39  49 W9        30.04F
$$

REGIONAL REPORTS...WYOMING/IDAHO/WASHINGTON

CITY           SKY/WX    TMP DP  RH WIND       PRES   REMARKS
GILLETTE       PTCLDY    45  41  86 W9        30.13R
SHERIDAN       CLOUDY    57  42  57 W15       30.14S
BUFFALO WY     CLOUDY    56  36  47 N10       30.19R
CODY           CLEAR     55  36  48 W3        30.23R
YELLOWSTONE LA   N/A     35  33  92 CALM      30.38R
IDAHO FALLS    CLEAR     55  44  66 SW7       30.25R
SALMON         CLEAR     55  39  54 CALM      30.16R
BOISE          CLEAR     71  35  26 CALM      30.14R
SPOKANE        PTCLDY    73  42  32 SW8       30.12S
$$

REGIONAL REPORTS...ALBERTA

CITY           SKY/WX    TMP DP  RH WIND       PRES   REMARKS
EDMONTON       CLEAR     61  36  39 N8        30.09R
CALGARY        MOCLDY    64  41  42 N5        30.13R
LETHBRIDGE     TSTM      61  48  63 NW22G31   30.13R
MEDICINE HAT   CLEAR     59  46  63 S3        30.02R
WATERTON GATE    N/A     57  36  44 SW6         N/A
CARDSTON         N/A     63  43  48 N16G31      N/A
MILK RIVER       N/A     55  46  71 NW6         N/A
ONEFOUR          N/A     55  43  62 NE10        N/A
$$

REGIONAL REPORTS...SASKATCHEWAN

CITY           SKY/WX    TMP DP  RH WIND       PRES   REMARKS
SWIFT CURRENT  CLEAR     57  36  44 N7        29.99R
SASKATOON      MOCLDY    59  36  41 N5        29.92R
CYPRESS HILLS    N/A     52  39  62 NW3         N/A
VAL MARIE        N/A     61  39  44 NW9         N/A
ROCKGLEN         N/A     57  34  41 N9          N/A
ASSINIBOIA       N/A     63  36  36 N8          N/A
$$




USA.gov is the U.S. government's official web portal to all federal, state and local government web resources and services.